owner,sensor,date,latitude,longitude,air_pressure(mBar),qcFlag 
WAVCIS,ioos:station:WAVCIS:CSI15:1,2008-09-01T00:00:00Z,28.8332,-90.8320,1003.479,11111222 
WAVCIS,ioos:station:WAVCIS:CSI15:1,2008-09-01T01:00:00Z,28.8332,-90.8320,1003.119,11111222 
WAVCIS,ioos:station:WAVCIS:CSI15:1,2008-09-01T02:00:00Z,28.8332,-90.8320,1002.616,11111222 
WAVCIS,ioos:station:WAVCIS:CSI15:1,2008-09-01T03:00:00Z,28.8332,-90.8320,1002.712,11111222 
WAVCIS,ioos:station:WAVCIS:CSI15:1,2008-09-01T04:00:00Z,28.8332,-90.8320,1002.701,11111222 
WAVCIS,ioos:station:WAVCIS:CSI15:1,2008-09-01T05:00:00Z,28.8332,-90.8320,1000.463,11111222 
WAVCIS,ioos:station:WAVCIS:CSI15:1,2008-09-01T06:00:00Z,28.8332,-90.8320,998.418,11111222 
WAVCIS,ioos:station:WAVCIS:CSI15:1,2008-09-01T07:00:00Z,28.8332,-90.8320,996.104,11111222 
WAVCIS,ioos:station:WAVCIS:CSI15:1,2008-09-01T08:00:00Z,28.8332,-90.8320,993.01,11111222 
WAVCIS,ioos:station:WAVCIS:CSI15:1,2008-09-01T09:00:00Z,28.8332,-90.8320,990.05,11111222 
WAVCIS,ioos:station:WAVCIS:CSI15:1,2008-09-01T10:00:00Z,28.8332,-90.8320,986.28,11111222 
WAVCIS,ioos:station:WAVCIS:CSI15:1,2008-09-01T11:00:00Z,28.8332,-90.8320,979.69,11133222 
WAVCIS,ioos:station:WAVCIS:CSI15:1,2008-09-01T12:00:00Z,28.8332,-90.8320,972.6,11133222 
WAVCIS,ioos:station:WAVCIS:CSI15:1,2008-09-01T13:00:00Z,28.8332,-90.8320,966.39,11133222 
WAVCIS,ioos:station:WAVCIS:CSI15:1,2008-09-01T14:00:00Z,28.8332,-90.8320,964.27,11133222 
WAVCIS,ioos:station:WAVCIS:CSI15:1,2008-09-01T15:00:00Z,28.8332,-90.8320,969.28,11133222 
WAVCIS,ioos:station:WAVCIS:CSI15:1,2008-09-01T16:00:00Z,28.8332,-90.8320,977.29,11133222 
WAVCIS,ioos:station:WAVCIS:CSI15:1,2008-09-01T17:00:00Z,28.8332,-90.8320,984.11,11111222 
WAVCIS,ioos:station:WAVCIS:CSI15:1,2008-09-01T19:00:00Z,28.8332,-90.8320,991.99,11111222 
WAVCIS,ioos:station:WAVCIS:CSI15:1,2008-09-01T20:00:00Z,28.8332,-90.8320,994.198,11111222 
WAVCIS,ioos:station:WAVCIS:CSI15:1,2008-09-01T21:00:00Z,28.8332,-90.8320,995.315,11111222 
WAVCIS,ioos:station:WAVCIS:CSI15:1,2008-09-01T22:00:00Z,28.8332,-90.8320,996.67,11111222 
WAVCIS,ioos:station:WAVCIS:CSI15:1,2008-09-01T23:00:00Z,28.8332,-90.8320,997.876,11111222 
WAVCIS,ioos:station:WAVCIS:CSI15:1,2008-09-02T00:00:00Z,28.8332,-90.8320,998.749,11111222 
WAVCIS,ioos:station:WAVCIS:CSI15:1,2008-09-02T01:00:00Z,28.8332,-90.8320,999.574,11111222 
WAVCIS,ioos:station:WAVCIS:CSI15:1,2008-09-02T02:00:00Z,28.8332,-90.8320,1000.809,11111222 
WAVCIS,ioos:station:WAVCIS:CSI15:1,2008-09-02T03:00:00Z,28.8332,-90.8320,1001.915,11111222 
WAVCIS,ioos:station:WAVCIS:CSI15:1,2008-09-02T04:00:00Z,28.8332,-90.8320,1002.671,11111222 
WAVCIS,ioos:station:WAVCIS:CSI15:1,2008-09-02T05:00:00Z,28.8332,-90.8320,1003.208,11111222 
WAVCIS,ioos:station:WAVCIS:CSI15:1,2008-09-02T06:00:00Z,28.8332,-90.8320,1004.044,11111222 
WAVCIS,ioos:station:WAVCIS:CSI15:1,2008-09-02T07:00:00Z,28.8332,-90.8320,1003.882,11111222 
WAVCIS,ioos:station:WAVCIS:CSI15:1,2008-09-02T08:00:00Z,28.8332,-90.8320,1004.345,11111222 
WAVCIS,ioos:station:WAVCIS:CSI15:1,2008-09-02T09:00:00Z,28.8332,-90.8320,1004.635,11111222 
WAVCIS,ioos:station:WAVCIS:CSI15:1,2008-09-02T10:00:00Z,28.8332,-90.8320,1004.023,11111222 
WAVCIS,ioos:station:WAVCIS:CSI15:1,2008-09-02T11:00:00Z,28.8332,-90.8320,1004.127,11111222 
WAVCIS,ioos:station:WAVCIS:CSI15:1,2008-09-02T12:00:00Z,28.8332,-90.8320,1005.311,11111222 
WAVCIS,ioos:station:WAVCIS:CSI15:1,2008-09-02T13:00:00Z,28.8332,-90.8320,1006.255,11111222 
WAVCIS,ioos:station:WAVCIS:CSI15:1,2008-09-02T15:00:00Z,28.8332,-90.8320,1006.896,11111222 
WAVCIS,ioos:station:WAVCIS:CSI15:1,2008-09-02T16:00:00Z,28.8332,-90.8320,1007.298,11111222 
WAVCIS,ioos:station:WAVCIS:CSI15:1,2008-09-02T17:00:00Z,28.8332,-90.8320,1007.47,11111222 
WAVCIS,ioos:station:WAVCIS:CSI15:1,2008-09-02T18:00:00Z,28.8332,-90.8320,1007.69,11111222 
WAVCIS,ioos:station:WAVCIS:CSI15:1,2008-09-02T19:00:00Z,28.8332,-90.8320,1007.3,11111222 
WAVCIS,ioos:station:WAVCIS:CSI15:1,2008-09-02T20:00:00Z,28.8332,-90.8320,1007.276,11111222 
WAVCIS,ioos:station:WAVCIS:CSI15:1,2008-09-02T21:00:00Z,28.8332,-90.8320,1006.803,11111222 
WAVCIS,ioos:station:WAVCIS:CSI15:1,2008-09-02T22:00:00Z,28.8332,-90.8320,1006.92,11111222 
WAVCIS,ioos:station:WAVCIS:CSI15:1,2008-09-02T23:00:00Z,28.8332,-90.8320,1006.889,11111222 
WAVCIS,ioos:station:WAVCIS:CSI15:1,2008-09-03T00:00:00Z,28.8332,-90.8320,1006.796,11111222 
WAVCIS,ioos:station:WAVCIS:CSI15:1,2008-09-03T01:00:00Z,28.8332,-90.8320,1007.007,11111222 
WAVCIS,ioos:station:WAVCIS:CSI15:1,2008-09-03T02:00:00Z,28.8332,-90.8320,1007.38,11111222 
WAVCIS,ioos:station:WAVCIS:CSI15:1,2008-09-03T03:00:00Z,28.8332,-90.8320,1007.4,11111222 
WAVCIS,ioos:station:WAVCIS:CSI15:1,2008-09-03T04:00:00Z,28.8332,-90.8320,1007.38,11111222 
WAVCIS,ioos:station:WAVCIS:CSI15:1,2008-09-03T05:00:00Z,28.8332,-90.8320,1007.55,11111222 
WAVCIS,ioos:station:WAVCIS:CSI15:1,2008-09-03T06:00:00Z,28.8332,-90.8320,1007.35,11111222 
WAVCIS,ioos:station:WAVCIS:CSI15:1,2008-09-03T07:00:00Z,28.8332,-90.8320,1007.273,11111222 
WAVCIS,ioos:station:WAVCIS:CSI15:1,2008-09-03T08:00:00Z,28.8332,-90.8320,1006.975,11111222 
WAVCIS,ioos:station:WAVCIS:CSI15:1,2008-09-03T09:00:00Z,28.8332,-90.8320,1006.68,11111222 
WAVCIS,ioos:station:WAVCIS:CSI15:1,2008-09-03T10:00:00Z,28.8332,-90.8320,1006.649,11111222 
WAVCIS,ioos:station:WAVCIS:CSI15:1,2008-09-03T11:00:00Z,28.8332,-90.8320,1006.691,11111222 
WAVCIS,ioos:station:WAVCIS:CSI15:1,2008-09-03T12:00:00Z,28.8332,-90.8320,1006.95,11111222 
WAVCIS,ioos:station:WAVCIS:CSI15:1,2008-09-03T13:00:00Z,28.8332,-90.8320,1007.45,11111222 
WAVCIS,ioos:station:WAVCIS:CSI15:1,2008-09-03T14:00:00Z,28.8332,-90.8320,1007.67,11111222 
WAVCIS,ioos:station:WAVCIS:CSI15:1,2008-09-03T15:00:00Z,28.8332,-90.8320,1008.0,11111222 
WAVCIS,ioos:station:WAVCIS:CSI15:1,2008-09-03T16:00:00Z,28.8332,-90.8320,1008.05,11111222 
WAVCIS,ioos:station:WAVCIS:CSI15:1,2008-09-03T17:00:00Z,28.8332,-90.8320,1007.92,11111222 
WAVCIS,ioos:station:WAVCIS:CSI15:1,2008-09-03T18:00:00Z,28.8332,-90.8320,1007.75,11111222 
WAVCIS,ioos:station:WAVCIS:CSI15:1,2008-09-03T19:00:00Z,28.8332,-90.8320,1007.38,11111222 
WAVCIS,ioos:station:WAVCIS:CSI15:1,2008-09-03T20:00:00Z,28.8332,-90.8320,1006.692,11111222 
WAVCIS,ioos:station:WAVCIS:CSI15:1,2008-09-03T21:00:00Z,28.8332,-90.8320,1006.222,11111222 
WAVCIS,ioos:station:WAVCIS:CSI15:1,2008-09-03T22:00:00Z,28.8332,-90.8320,1006.048,11111222 
WAVCIS,ioos:station:WAVCIS:CSI15:1,2008-09-03T23:00:00Z,28.8332,-90.8320,1006.289,11111222 
WAVCIS,ioos:station:WAVCIS:CSI15:1,2008-09-04T00:00:00Z,28.8332,-90.8320,1005.918,11111222 
WAVCIS,ioos:station:WAVCIS:CSI15:1,2008-09-04T01:00:00Z,28.8332,-90.8320,1005.834,11111222 
WAVCIS,ioos:station:WAVCIS:CSI15:1,2008-09-04T02:00:00Z,28.8332,-90.8320,1005.968,11111222 
WAVCIS,ioos:station:WAVCIS:CSI15:1,2008-09-04T03:00:00Z,28.8332,-90.8320,1006.267,11111222 
WAVCIS,ioos:station:WAVCIS:CSI15:1,2008-09-04T04:00:00Z,28.8332,-90.8320,1006.511,11111222 
WAVCIS,ioos:station:WAVCIS:CSI15:1,2008-09-04T05:00:00Z,28.8332,-90.8320,1006.506,11111222 
WAVCIS,ioos:station:WAVCIS:CSI15:1,2008-09-04T06:00:00Z,28.8332,-90.8320,1006.664,11111222 
WAVCIS,ioos:station:WAVCIS:CSI15:1,2008-09-04T07:00:00Z,28.8332,-90.8320,1006.514,11111222 
WAVCIS,ioos:station:WAVCIS:CSI15:1,2008-09-04T08:00:00Z,28.8332,-90.8320,1006.267,11111222 
WAVCIS,ioos:station:WAVCIS:CSI15:1,2008-09-04T09:00:00Z,28.8332,-90.8320,1006.458,11111222 
WAVCIS,ioos:station:WAVCIS:CSI15:1,2008-09-04T10:00:00Z,28.8332,-90.8320,1006.54,11111222 
WAVCIS,ioos:station:WAVCIS:CSI15:1,2008-09-04T11:00:00Z,28.8332,-90.8320,1006.918,11111222 
WAVCIS,ioos:station:WAVCIS:CSI15:1,2008-09-04T12:00:00Z,28.8332,-90.8320,1006.923,11111222 
WAVCIS,ioos:station:WAVCIS:CSI15:1,2008-09-04T13:00:00Z,28.8332,-90.8320,1007.219,11111222 
WAVCIS,ioos:station:WAVCIS:CSI15:1,2008-09-04T14:00:00Z,28.8332,-90.8320,1006.934,11111222 
WAVCIS,ioos:station:WAVCIS:CSI15:1,2008-09-04T15:00:00Z,28.8332,-90.8320,1007.314,11111222 
WAVCIS,ioos:station:WAVCIS:CSI15:1,2008-09-04T16:00:00Z,28.8332,-90.8320,1007.72,11111222 
WAVCIS,ioos:station:WAVCIS:CSI15:1,2008-09-04T17:00:00Z,28.8332,-90.8320,1007.53,11111222 
WAVCIS,ioos:station:WAVCIS:CSI15:1,2008-09-04T18:00:00Z,28.8332,-90.8320,1007.172,11111222 
WAVCIS,ioos:station:WAVCIS:CSI15:1,2008-09-04T19:00:00Z,28.8332,-90.8320,1006.547,11111222 
WAVCIS,ioos:station:WAVCIS:CSI15:1,2008-09-04T20:00:00Z,28.8332,-90.8320,1006.217,11111222 
WAVCIS,ioos:station:WAVCIS:CSI15:1,2008-09-04T21:00:00Z,28.8332,-90.8320,1005.653,11111222 
WAVCIS,ioos:station:WAVCIS:CSI15:1,2008-09-04T22:00:00Z,28.8332,-90.8320,1005.565,11111222 
WAVCIS,ioos:station:WAVCIS:CSI15:1,2008-09-04T23:00:00Z,28.8332,-90.8320,1005.509,11111222 
WAVCIS,ioos:station:WAVCIS:CSI15:1,2008-09-05T00:00:00Z,28.8332,-90.8320,1005.167,11111222 
WAVCIS,ioos:station:WAVCIS:CSI15:1,2008-09-05T01:00:00Z,28.8332,-90.8320,1005.445,11111222 
WAVCIS,ioos:station:WAVCIS:CSI15:1,2008-09-05T02:00:00Z,28.8332,-90.8320,1006.02,11111222 
WAVCIS,ioos:station:WAVCIS:CSI15:1,2008-09-05T03:00:00Z,28.8332,-90.8320,1006.365,11111222 
WAVCIS,ioos:station:WAVCIS:CSI15:1,2008-09-05T04:00:00Z,28.8332,-90.8320,1006.604,11111222 
WAVCIS,ioos:station:WAVCIS:CSI15:1,2008-09-05T05:00:00Z,28.8332,-90.8320,1006.642,11111222 
WAVCIS,ioos:station:WAVCIS:CSI15:1,2008-09-05T06:00:00Z,28.8332,-90.8320,1006.568,11111222 
WAVCIS,ioos:station:WAVCIS:CSI15:1,2008-09-05T07:00:00Z,28.8332,-90.8320,1006.457,11111222 
WAVCIS,ioos:station:WAVCIS:CSI15:1,2008-09-05T08:00:00Z,28.8332,-90.8320,1006.414,11111222 
WAVCIS,ioos:station:WAVCIS:CSI15:1,2008-09-05T09:00:00Z,28.8332,-90.8320,1006.374,11111222 
WAVCIS,ioos:station:WAVCIS:CSI15:1,2008-09-05T10:00:00Z,28.8332,-90.8320,1006.102,11111222 
WAVCIS,ioos:station:WAVCIS:CSI15:1,2008-09-05T11:00:00Z,28.8332,-90.8320,1006.672,11111222 
WAVCIS,ioos:station:WAVCIS:CSI15:1,2008-09-05T12:00:00Z,28.8332,-90.8320,1007.32,11111222 
WAVCIS,ioos:station:WAVCIS:CSI15:1,2008-09-05T13:00:00Z,28.8332,-90.8320,1007.63,11111222 
WAVCIS,ioos:station:WAVCIS:CSI15:1,2008-09-05T14:00:00Z,28.8332,-90.8320,1007.78,11111222 
WAVCIS,ioos:station:WAVCIS:CSI15:1,2008-09-05T15:00:00Z,28.8332,-90.8320,1008.51,11111222 
WAVCIS,ioos:station:WAVCIS:CSI15:1,2008-09-05T16:00:00Z,28.8332,-90.8320,1008.97,11111222 
WAVCIS,ioos:station:WAVCIS:CSI15:1,2008-09-05T17:00:00Z,28.8332,-90.8320,1008.76,11111222 
WAVCIS,ioos:station:WAVCIS:CSI15:1,2008-09-05T18:00:00Z,28.8332,-90.8320,1008.14,11111222 
WAVCIS,ioos:station:WAVCIS:CSI15:1,2008-09-05T19:00:00Z,28.8332,-90.8320,1008.21,11111222 
WAVCIS,ioos:station:WAVCIS:CSI15:1,2008-09-05T20:00:00Z,28.8332,-90.8320,1007.51,11111222 
WAVCIS,ioos:station:WAVCIS:CSI15:1,2008-09-05T21:00:00Z,28.8332,-90.8320,1007.296,11111222 
WAVCIS,ioos:station:WAVCIS:CSI15:1,2008-09-05T22:00:00Z,28.8332,-90.8320,1007.16,11111222 
WAVCIS,ioos:station:WAVCIS:CSI15:1,2008-09-05T23:00:00Z,28.8332,-90.8320,1007.296,11111222 
WAVCIS,ioos:station:WAVCIS:CSI15:1,2008-09-06T00:00:00Z,28.8332,-90.8320,1007.296,11111222 
WAVCIS,ioos:station:WAVCIS:CSI15:1,2008-09-06T01:00:00Z,28.8332,-90.8320,1007.73,11111222 
WAVCIS,ioos:station:WAVCIS:CSI15:1,2008-09-06T02:00:00Z,28.8332,-90.8320,1008.3,11111222 
WAVCIS,ioos:station:WAVCIS:CSI15:1,2008-09-06T03:00:00Z,28.8332,-90.8320,1008.86,11111222 
WAVCIS,ioos:station:WAVCIS:CSI15:1,2008-09-06T04:00:00Z,28.8332,-90.8320,1009.23,11111222 
WAVCIS,ioos:station:WAVCIS:CSI15:1,2008-09-06T05:00:00Z,28.8332,-90.8320,1009.59,11111222 
WAVCIS,ioos:station:WAVCIS:CSI15:1,2008-09-06T06:00:00Z,28.8332,-90.8320,1009.45,11111222 
WAVCIS,ioos:station:WAVCIS:CSI15:1,2008-09-06T07:00:00Z,28.8332,-90.8320,1009.27,11111222 
WAVCIS,ioos:station:WAVCIS:CSI15:1,2008-09-06T08:00:00Z,28.8332,-90.8320,1009.22,11111222 
WAVCIS,ioos:station:WAVCIS:CSI15:1,2008-09-06T09:00:00Z,28.8332,-90.8320,1009.12,11111222 
WAVCIS,ioos:station:WAVCIS:CSI15:1,2008-09-06T10:00:00Z,28.8332,-90.8320,1009.3,11111222 
WAVCIS,ioos:station:WAVCIS:CSI15:1,2008-09-06T13:00:00Z,28.8332,-90.8320,1010.47,11111222 
WAVCIS,ioos:station:WAVCIS:CSI15:1,2008-09-06T14:00:00Z,28.8332,-90.8320,1010.92,11111222 
WAVCIS,ioos:station:WAVCIS:CSI15:1,2008-09-06T15:00:00Z,28.8332,-90.8320,1011.55,11111222 
WAVCIS,ioos:station:WAVCIS:CSI15:1,2008-09-06T16:00:00Z,28.8332,-90.8320,1012.09,11111222 
WAVCIS,ioos:station:WAVCIS:CSI15:1,2008-09-06T17:00:00Z,28.8332,-90.8320,1012.28,11111222 
WAVCIS,ioos:station:WAVCIS:CSI15:1,2008-09-06T18:00:00Z,28.8332,-90.8320,1012.25,11111222 
WAVCIS,ioos:station:WAVCIS:CSI15:1,2008-09-06T19:00:00Z,28.8332,-90.8320,1011.78,11111222 
WAVCIS,ioos:station:WAVCIS:CSI15:1,2008-09-06T20:00:00Z,28.8332,-90.8320,1011.52,11111222 
WAVCIS,ioos:station:WAVCIS:CSI15:1,2008-09-06T21:00:00Z,28.8332,-90.8320,1011.38,11111222 
WAVCIS,ioos:station:WAVCIS:CSI15:1,2008-09-06T22:00:00Z,28.8332,-90.8320,1011.49,11111222 
WAVCIS,ioos:station:WAVCIS:CSI15:1,2008-09-06T23:00:00Z,28.8332,-90.8320,1011.69,11111222 
WAVCIS,ioos:station:WAVCIS:CSI15:1,2008-09-07T00:00:00Z,28.8332,-90.8320,1011.59,11111222 
WAVCIS,ioos:station:WAVCIS:CSI15:1,2008-09-07T01:00:00Z,28.8332,-90.8320,1012.04,11111222 
WAVCIS,ioos:station:WAVCIS:CSI15:1,2008-09-07T02:00:00Z,28.8332,-90.8320,1012.48,11111222 
WAVCIS,ioos:station:WAVCIS:CSI15:1,2008-09-07T03:00:00Z,28.8332,-90.8320,1013.04,11111222 
WAVCIS,ioos:station:WAVCIS:CSI15:1,2008-09-07T04:00:00Z,28.8332,-90.8320,1013.32,11111222 
WAVCIS,ioos:station:WAVCIS:CSI15:1,2008-09-07T05:00:00Z,28.8332,-90.8320,1013.51,11111222 
WAVCIS,ioos:station:WAVCIS:CSI15:1,2008-09-07T06:00:00Z,28.8332,-90.8320,1013.29,11111222 
WAVCIS,ioos:station:WAVCIS:CSI15:1,2008-09-07T07:00:00Z,28.8332,-90.8320,1012.96,11111222 
WAVCIS,ioos:station:WAVCIS:CSI15:1,2008-09-07T08:00:00Z,28.8332,-90.8320,1012.73,11111222 
WAVCIS,ioos:station:WAVCIS:CSI15:1,2008-09-07T09:00:00Z,28.8332,-90.8320,1012.4,11111222 
WAVCIS,ioos:station:WAVCIS:CSI15:1,2008-09-07T10:00:00Z,28.8332,-90.8320,1012.65,11111222 
WAVCIS,ioos:station:WAVCIS:CSI15:1,2008-09-07T11:00:00Z,28.8332,-90.8320,1012.76,11111222 
WAVCIS,ioos:station:WAVCIS:CSI15:1,2008-09-07T12:00:00Z,28.8332,-90.8320,1013.08,11111222 
WAVCIS,ioos:station:WAVCIS:CSI15:1,2008-09-07T13:00:00Z,28.8332,-90.8320,1013.73,11111222 
WAVCIS,ioos:station:WAVCIS:CSI15:1,2008-09-07T14:00:00Z,28.8332,-90.8320,1014.21,11111222 
WAVCIS,ioos:station:WAVCIS:CSI15:1,2008-09-07T15:00:00Z,28.8332,-90.8320,1014.87,11111222 
WAVCIS,ioos:station:WAVCIS:CSI15:1,2008-09-07T16:00:00Z,28.8332,-90.8320,1015.04,11111222 
WAVCIS,ioos:station:WAVCIS:CSI15:1,2008-09-07T17:00:00Z,28.8332,-90.8320,1014.94,11111222 
WAVCIS,ioos:station:WAVCIS:CSI15:1,2008-09-07T18:00:00Z,28.8332,-90.8320,1014.55,11111222 
WAVCIS,ioos:station:WAVCIS:CSI15:1,2008-09-07T19:00:00Z,28.8332,-90.8320,1014.08,11111222 
WAVCIS,ioos:station:WAVCIS:CSI15:1,2008-09-07T20:00:00Z,28.8332,-90.8320,1013.78,11111222 
WAVCIS,ioos:station:WAVCIS:CSI15:1,2008-09-07T21:00:00Z,28.8332,-90.8320,1013.25,11111222 
WAVCIS,ioos:station:WAVCIS:CSI15:1,2008-09-07T22:00:00Z,28.8332,-90.8320,1013.01,11111222 
WAVCIS,ioos:station:WAVCIS:CSI15:1,2008-09-07T23:00:00Z,28.8332,-90.8320,1013.1,11111222 
WAVCIS,ioos:station:WAVCIS:CSI15:1,2008-09-08T00:00:00Z,28.8332,-90.8320,1012.99,11111222 
WAVCIS,ioos:station:WAVCIS:CSI15:1,2008-09-08T01:00:00Z,28.8332,-90.8320,1013.2,11111222 
WAVCIS,ioos:station:WAVCIS:CSI15:1,2008-09-08T02:00:00Z,28.8332,-90.8320,1013.91,11111222 
WAVCIS,ioos:station:WAVCIS:CSI15:1,2008-09-08T03:00:00Z,28.8332,-90.8320,1014.25,11111222 
WAVCIS,ioos:station:WAVCIS:CSI15:1,2008-09-08T04:00:00Z,28.8332,-90.8320,1014.02,11111222 
WAVCIS,ioos:station:WAVCIS:CSI15:1,2008-09-08T05:00:00Z,28.8332,-90.8320,1013.88,11111222 
WAVCIS,ioos:station:WAVCIS:CSI15:1,2008-09-08T06:00:00Z,28.8332,-90.8320,1013.57,11111222 
WAVCIS,ioos:station:WAVCIS:CSI15:1,2008-09-08T07:00:00Z,28.8332,-90.8320,1013.37,11111222 
WAVCIS,ioos:station:WAVCIS:CSI15:1,2008-09-08T08:00:00Z,28.8332,-90.8320,1013.3,11111222 
WAVCIS,ioos:station:WAVCIS:CSI15:1,2008-09-08T09:00:00Z,28.8332,-90.8320,1013.32,11111222 
WAVCIS,ioos:station:WAVCIS:CSI15:1,2008-09-08T10:00:00Z,28.8332,-90.8320,1013.08,11111222 
WAVCIS,ioos:station:WAVCIS:CSI15:1,2008-09-08T11:00:00Z,28.8332,-90.8320,1013.22,11111222 
WAVCIS,ioos:station:WAVCIS:CSI15:1,2008-09-08T12:00:00Z,28.8332,-90.8320,1013.58,11111222 
WAVCIS,ioos:station:WAVCIS:CSI15:1,2008-09-08T13:00:00Z,28.8332,-90.8320,1013.76,11111222 
WAVCIS,ioos:station:WAVCIS:CSI15:1,2008-09-08T14:00:00Z,28.8332,-90.8320,1013.9,11111222 
WAVCIS,ioos:station:WAVCIS:CSI15:1,2008-09-08T15:00:00Z,28.8332,-90.8320,1013.88,11111222 
WAVCIS,ioos:station:WAVCIS:CSI15:1,2008-09-08T16:00:00Z,28.8332,-90.8320,1014.2,11111222 
WAVCIS,ioos:station:WAVCIS:CSI15:1,2008-09-08T17:00:00Z,28.8332,-90.8320,1014.08,11111222 
WAVCIS,ioos:station:WAVCIS:CSI15:1,2008-09-08T18:00:00Z,28.8332,-90.8320,1013.56,11111222 
WAVCIS,ioos:station:WAVCIS:CSI15:1,2008-09-08T19:00:00Z,28.8332,-90.8320,1013.1,11111222 
WAVCIS,ioos:station:WAVCIS:CSI15:1,2008-09-08T20:00:00Z,28.8332,-90.8320,1012.63,11111222 
WAVCIS,ioos:station:WAVCIS:CSI15:1,2008-09-08T21:00:00Z,28.8332,-90.8320,1011.82,11111222 
WAVCIS,ioos:station:WAVCIS:CSI15:1,2008-09-08T22:00:00Z,28.8332,-90.8320,1011.48,11111222 
WAVCIS,ioos:station:WAVCIS:CSI15:1,2008-09-08T23:00:00Z,28.8332,-90.8320,1011.42,11111222 
WAVCIS,ioos:station:WAVCIS:CSI15:1,2008-09-09T00:00:00Z,28.8332,-90.8320,1011.71,11111222 
WAVCIS,ioos:station:WAVCIS:CSI15:1,2008-09-09T01:00:00Z,28.8332,-90.8320,1012.47,11111222 
WAVCIS,ioos:station:WAVCIS:CSI15:1,2008-09-09T02:00:00Z,28.8332,-90.8320,1012.7,11111222 
WAVCIS,ioos:station:WAVCIS:CSI15:1,2008-09-09T03:00:00Z,28.8332,-90.8320,1012.71,11111222 
WAVCIS,ioos:station:WAVCIS:CSI15:1,2008-09-09T04:00:00Z,28.8332,-90.8320,1012.28,11111222 
WAVCIS,ioos:station:WAVCIS:CSI15:1,2008-09-09T05:00:00Z,28.8332,-90.8320,1012.19,11111222 
WAVCIS,ioos:station:WAVCIS:CSI15:1,2008-09-09T06:00:00Z,28.8332,-90.8320,1011.49,11111222 
WAVCIS,ioos:station:WAVCIS:CSI15:1,2008-09-09T07:00:00Z,28.8332,-90.8320,1011.12,11111222 
WAVCIS,ioos:station:WAVCIS:CSI15:1,2008-09-09T08:00:00Z,28.8332,-90.8320,1010.41,11111222 
WAVCIS,ioos:station:WAVCIS:CSI15:1,2008-09-09T09:00:00Z,28.8332,-90.8320,1010.56,11111222 
WAVCIS,ioos:station:WAVCIS:CSI15:1,2008-09-09T10:00:00Z,28.8332,-90.8320,1010.42,11111222 
WAVCIS,ioos:station:WAVCIS:CSI15:1,2008-09-09T11:00:00Z,28.8332,-90.8320,1010.8,11111222 
WAVCIS,ioos:station:WAVCIS:CSI15:1,2008-09-09T12:00:00Z,28.8332,-90.8320,1011.45,11111222 
WAVCIS,ioos:station:WAVCIS:CSI15:1,2008-09-09T19:00:00Z,28.8332,-90.8320,1011.42,11111222 
WAVCIS,ioos:station:WAVCIS:CSI15:1,2008-09-09T20:00:00Z,28.8332,-90.8320,1010.81,11111222 
WAVCIS,ioos:station:WAVCIS:CSI15:1,2008-09-09T21:00:00Z,28.8332,-90.8320,1010.27,11111222 
WAVCIS,ioos:station:WAVCIS:CSI15:1,2008-09-09T22:00:00Z,28.8332,-90.8320,1010.04,11111222 
WAVCIS,ioos:station:WAVCIS:CSI15:1,2008-09-09T23:00:00Z,28.8332,-90.8320,1010.0,11111222 
WAVCIS,ioos:station:WAVCIS:CSI15:1,2008-09-10T00:00:00Z,28.8332,-90.8320,1010.2,11111222 
WAVCIS,ioos:station:WAVCIS:CSI15:1,2008-09-10T01:00:00Z,28.8332,-90.8320,1010.15,11111222 
WAVCIS,ioos:station:WAVCIS:CSI15:1,2008-09-10T02:00:00Z,28.8332,-90.8320,1010.99,11111222 
WAVCIS,ioos:station:WAVCIS:CSI15:1,2008-09-10T03:00:00Z,28.8332,-90.8320,1011.14,11111222 
WAVCIS,ioos:station:WAVCIS:CSI15:1,2008-09-10T04:00:00Z,28.8332,-90.8320,1010.9,11111222 
WAVCIS,ioos:station:WAVCIS:CSI15:1,2008-09-10T05:00:00Z,28.8332,-90.8320,1010.42,11111222 
WAVCIS,ioos:station:WAVCIS:CSI15:1,2008-09-10T06:00:00Z,28.8332,-90.8320,1010.29,11111222 
WAVCIS,ioos:station:WAVCIS:CSI15:1,2008-09-10T07:00:00Z,28.8332,-90.8320,1010.01,11111222 
WAVCIS,ioos:station:WAVCIS:CSI15:1,2008-09-10T08:00:00Z,28.8332,-90.8320,1009.47,11111222 
WAVCIS,ioos:station:WAVCIS:CSI15:1,2008-09-10T09:00:00Z,28.8332,-90.8320,1009.07,11111222 
WAVCIS,ioos:station:WAVCIS:CSI15:1,2008-09-10T10:00:00Z,28.8332,-90.8320,1009.41,11111222 
WAVCIS,ioos:station:WAVCIS:CSI15:1,2008-09-10T11:00:00Z,28.8332,-90.8320,1009.34,11111222 
WAVCIS,ioos:station:WAVCIS:CSI15:1,2008-09-10T12:00:00Z,28.8332,-90.8320,1009.71,11111222 
WAVCIS,ioos:station:WAVCIS:CSI15:1,2008-09-10T13:00:00Z,28.8332,-90.8320,1010.23,11111222 
WAVCIS,ioos:station:WAVCIS:CSI15:1,2008-09-10T14:00:00Z,28.8332,-90.8320,1010.7,11111222 
WAVCIS,ioos:station:WAVCIS:CSI15:1,2008-09-10T15:00:00Z,28.8332,-90.8320,1010.58,11111222 
WAVCIS,ioos:station:WAVCIS:CSI15:1,2008-09-10T16:00:00Z,28.8332,-90.8320,1010.6,11111222 
WAVCIS,ioos:station:WAVCIS:CSI15:1,2008-09-10T17:00:00Z,28.8332,-90.8320,1010.29,11111222 
WAVCIS,ioos:station:WAVCIS:CSI15:1,2008-09-10T18:00:00Z,28.8332,-90.8320,1009.95,11111222 
WAVCIS,ioos:station:WAVCIS:CSI15:1,2008-09-10T19:00:00Z,28.8332,-90.8320,1009.58,11111222 
WAVCIS,ioos:station:WAVCIS:CSI15:1,2008-09-10T20:00:00Z,28.8332,-90.8320,1008.96,11111222 
WAVCIS,ioos:station:WAVCIS:CSI15:1,2008-09-10T21:00:00Z,28.8332,-90.8320,1008.36,11111222 
WAVCIS,ioos:station:WAVCIS:CSI15:1,2008-09-10T22:00:00Z,28.8332,-90.8320,1007.99,11111222 
WAVCIS,ioos:station:WAVCIS:CSI15:1,2008-09-10T23:00:00Z,28.8332,-90.8320,1008.04,11111222 
WAVCIS,ioos:station:WAVCIS:CSI15:1,2008-09-11T00:00:00Z,28.8332,-90.8320,1008.13,11111222 
WAVCIS,ioos:station:WAVCIS:CSI15:1,2008-09-11T01:00:00Z,28.8332,-90.8320,1008.36,11111222 
WAVCIS,ioos:station:WAVCIS:CSI15:1,2008-09-11T02:00:00Z,28.8332,-90.8320,1008.81,11111222 
WAVCIS,ioos:station:WAVCIS:CSI15:1,2008-09-11T03:00:00Z,28.8332,-90.8320,1009.16,11111222 
WAVCIS,ioos:station:WAVCIS:CSI15:1,2008-09-11T04:00:00Z,28.8332,-90.8320,1008.84,11111222 
WAVCIS,ioos:station:WAVCIS:CSI15:1,2008-09-11T05:00:00Z,28.8332,-90.8320,1008.39,11111222 
WAVCIS,ioos:station:WAVCIS:CSI15:1,2008-09-11T06:00:00Z,28.8332,-90.8320,1007.82,11111222 
WAVCIS,ioos:station:WAVCIS:CSI15:1,2008-09-11T07:00:00Z,28.8332,-90.8320,1007.146,11111222 
WAVCIS,ioos:station:WAVCIS:CSI15:1,2008-09-11T08:00:00Z,28.8332,-90.8320,1006.988,11111222 
WAVCIS,ioos:station:WAVCIS:CSI15:1,2008-09-11T10:00:00Z,28.8332,-90.8320,1006.272,11111222 
WAVCIS,ioos:station:WAVCIS:CSI15:1,2008-09-11T11:00:00Z,28.8332,-90.8320,1006.202,11111222 
WAVCIS,ioos:station:WAVCIS:CSI15:1,2008-09-11T12:00:00Z,28.8332,-90.8320,1006.274,11111222 
WAVCIS,ioos:station:WAVCIS:CSI15:1,2008-09-11T13:00:00Z,28.8332,-90.8320,1006.197,11111222 
WAVCIS,ioos:station:WAVCIS:CSI15:1,2008-09-11T14:00:00Z,28.8332,-90.8320,1006.387,11111222 
WAVCIS,ioos:station:WAVCIS:CSI15:1,2008-09-11T15:00:00Z,28.8332,-90.8320,1006.043,11111222 
WAVCIS,ioos:station:WAVCIS:CSI15:1,2008-09-11T16:00:00Z,28.8332,-90.8320,1006.054,11111222 
WAVCIS,ioos:station:WAVCIS:CSI15:1,2008-09-11T17:00:00Z,28.8332,-90.8320,1005.806,11111222 
WAVCIS,ioos:station:WAVCIS:CSI15:1,2008-09-11T18:00:00Z,28.8332,-90.8320,1004.682,11111222 
WAVCIS,ioos:station:WAVCIS:CSI15:1,2008-09-11T19:00:00Z,28.8332,-90.8320,1003.941,11111222 
WAVCIS,ioos:station:WAVCIS:CSI15:1,2008-09-11T20:00:00Z,28.8332,-90.8320,1002.742,11111222 
WAVCIS,ioos:station:WAVCIS:CSI15:1,2008-09-11T21:00:00Z,28.8332,-90.8320,1001.7,11111222 
WAVCIS,ioos:station:WAVCIS:CSI15:1,2008-09-11T22:00:00Z,28.8332,-90.8320,1001.535,11111222 
WAVCIS,ioos:station:WAVCIS:CSI15:1,2008-09-11T23:00:00Z,28.8332,-90.8320,1001.101,11111222 
WAVCIS,ioos:station:WAVCIS:CSI15:1,2008-09-12T02:00:00Z,28.8332,-90.8320,1000.947,11111222 
WAVCIS,ioos:station:WAVCIS:CSI15:1,2008-09-12T03:00:00Z,28.8332,-90.8320,1000.637,11111222 
WAVCIS,ioos:station:WAVCIS:CSI15:1,2008-09-12T04:00:00Z,28.8332,-90.8320,1000.359,11111222 
WAVCIS,ioos:station:WAVCIS:CSI15:1,2008-09-12T05:00:00Z,28.8332,-90.8320,999.932,11111222 
WAVCIS,ioos:station:WAVCIS:CSI15:1,2008-09-12T08:00:00Z,28.8332,-90.8320,997.954,11111222 
WAVCIS,ioos:station:WAVCIS:CSI15:1,2008-09-12T09:00:00Z,28.8332,-90.8320,996.645,11111222 
WAVCIS,ioos:station:WAVCIS:CSI15:1,2008-09-12T10:00:00Z,28.8332,-90.8320,996.235,11111222 
WAVCIS,ioos:station:WAVCIS:CSI15:1,2008-09-12T11:00:00Z,28.8332,-90.8320,996.241,11111222 
WAVCIS,ioos:station:WAVCIS:CSI15:1,2008-09-12T12:00:00Z,28.8332,-90.8320,996.617,11111222 